Location: Chilton Park
(37.7711°N, 100.0276°W)
Time: 14:21:54
(UTC+00:00)

AQUARIUS - Pass Details

Date: 08 December 2021
Orbit: 650 x 651 km, 98.0° (Epoch: 19 January)

Event Time Altitude Azimuth Distance (km) Brightness Sun altitude
Rises 12:55:23 0° 14° (NNE) 2,979 7.5 -9.4°
Reaches altitude 10° 12:57:37 10° 16° (NNE) 2,063 6.7 -9.0°
Maximum altitude 13:02:07 74° 101° (ESE) 681 4.5 -8.2°
Drops below altitude 10° 13:06:34 10° 187° (S) 2,048 6.9 -7.4°
Sets 13:08:47 0° 189° (S) 2,954 7.7 -7.0°
